GSAT-11 (43824 NORAD) Tracking and Keplerian Element Data

This shows tracking and keplerian element data for the satellite.

Feedback or suggestion? Click here.




ElementValue
Catalog43824
NameGSAT-11
Epoch Orbit223
Epoch Day200.84118747
Epoch Year2019
RAAN275.7598
Inclination0.1386
Eccentricity0.0007544
Argument of Perigee190.8147
Mean Anonmoly207.5651
Mean Motion1.00274279
Decay Rate-8.5E-07
L11 43824U 18100B 19200.84118747 -.00000085 00000-0 00000-0 0 9997
L22 43824 0.1386 275.7598 0007544 190.8147 207.5651 1.00274279 2239

Live tracking and technical data element details for GSAT-11 (NORAD 43824). GSAT-11 can be tracked NOW for your location showing map with azimuth and elevation plus other details from your city location.

Track the satellite on the map from your city or location and see movement details for azimuth, elevation, latitude, longitude, range, height, and movement on the map or in text.







IsCatalogInMostPopularTable: catalog: 43824, numindb: 88
Update: records affected: 1



GetName: 43824 GSAT-11

Hit Count: updated at: Sat, 20 Jul 2019 21:52:25 GMT